TimeEDT,TemperatureF,Dew PointF,Humidity,Sea Level PressureIn,VisibilityMPH,Wind Direction,Wind SpeedMPH,Gust SpeedMPH,PrecipitationIn,Events,Conditions,WindDirDegrees,DateUTC
12:54 AM,57.9,53.1,84,30.11,10.0,NE,4.6,-,N/A,,Overcast,50,2013-10-16 04:54:00
1:08 AM,57.2,53.6,88,30.11,10.0,NE,3.5,-,N/A,,Overcast,40,2013-10-16 05:08:00
1:54 AM,59.0,53.1,81,30.11,10.0,NNE,3.5,-,N/A,,Overcast,20,2013-10-16 05:54:00
2:54 AM,57.0,53.1,87,30.09,10.0,ENE,3.5,-,N/A,,Overcast,60,2013-10-16 06:54:00
3:54 AM,57.9,54.0,87,30.09,10.0,East,4.6,-,N/A,,Overcast,80,2013-10-16 07:54:00
4:39 AM,59.0,55.4,88,30.09,8.0,NNE,4.6,-,N/A,,Overcast,30,2013-10-16 08:39:00
4:50 AM,59.0,55.4,88,30.08,8.0,NE,4.6,-,N/A,,Overcast,50,2013-10-16 08:50:00
4:54 AM,59.0,55.0,87,30.09,8.0,NE,3.5,-,N/A,,Overcast,50,2013-10-16 08:54:00
5:45 AM,59.0,55.4,88,30.08,7.0,ENE,3.5,-,N/A,,Overcast,60,2013-10-16 09:45:00
5:54 AM,59.0,55.0,87,30.08,7.0,NE,4.6,-,N/A,,Overcast,50,2013-10-16 09:54:00
6:15 AM,59.0,55.4,88,30.08,7.0,Calm,Calm,-,N/A,,Overcast,0,2013-10-16 10:15:00
6:35 AM,59.0,55.4,88,30.08,9.0,North,3.5,-,N/A,,Mostly Cloudy,360,2013-10-16 10:35:00
6:43 AM,59.0,55.4,88,30.08,8.0,North,3.5,-,N/A,,Mostly Cloudy,360,2013-10-16 10:43:00
6:54 AM,60.1,55.0,83,30.08,8.0,North,3.5,-,N/A,,Mostly Cloudy,10,2013-10-16 10:54:00
7:50 AM,59.0,55.4,88,30.06,7.0,ENE,9.2,-,N/A,,Overcast,70,2013-10-16 11:50:00
7:54 AM,59.0,55.0,87,30.06,7.0,East,8.1,-,N/A,,Overcast,80,2013-10-16 11:54:00
8:02 AM,59.0,55.4,88,30.06,6.0,ENE,6.9,-,N/A,,Overcast,60,2013-10-16 12:02:00
8:37 AM,59.0,55.4,88,30.07,4.0,NE,5.8,-,N/A,,Overcast,40,2013-10-16 12:37:00
8:54 AM,59.0,55.9,90,30.08,4.0,NNE,3.5,-,N/A,,Overcast,20,2013-10-16 12:54:00
9:11 AM,60.8,55.4,82,30.08,5.0,Calm,Calm,-,N/A,,Overcast,0,2013-10-16 13:11:00
9:34 AM,60.8,55.4,82,30.08,5.0,ENE,3.5,-,N/A,,Haze,60,2013-10-16 13:34:00
9:54 AM,62.1,55.9,80,30.07,6.0,East,5.8,-,N/A,,Haze,100,2013-10-16 13:54:00
10:50 AM,62.6,55.4,77,30.06,7.0,Calm,Calm,-,N/A,,Overcast,0,2013-10-16 14:50:00
10:54 AM,62.1,55.9,80,30.06,7.0,Variable,4.6,-,N/A,,Overcast,0,2013-10-16 14:54:00
11:30 AM,62.6,55.4,77,30.05,8.0,Calm,Calm,-,N/A,,Overcast,0,2013-10-16 15:30:00
11:54 AM,64.0,55.9,75,30.05,8.0,Calm,Calm,-,N/A,,Overcast,0,2013-10-16 15:54:00
12:26 PM,66.2,55.4,68,30.04,10.0,Calm,Calm,-,N/A,,Mostly Cloudy,0,2013-10-16 16:26:00
12:31 PM,64.4,55.4,73,30.03,10.0,Calm,Calm,-,N/A,,Mostly Cloudy,0,2013-10-16 16:31:00
12:54 PM,66.9,57.0,70,30.02,10.0,East,4.6,-,N/A,,Mostly Cloudy,100,2013-10-16 16:54:00
1:54 PM,69.1,57.0,65,29.99,10.0,Calm,Calm,-,N/A,,Mostly Cloudy,0,2013-10-16 17:54:00
2:54 PM,69.1,55.9,63,29.98,10.0,Calm,Calm,-,N/A,,Mostly Cloudy,0,2013-10-16 18:54:00
3:54 PM,69.1,57.0,65,29.99,10.0,SSW,4.6,-,N/A,,Overcast,210,2013-10-16 19:54:00
4:54 PM,69.1,57.0,65,29.97,10.0,SW,3.5,-,N/A,,Overcast,220,2013-10-16 20:54:00
5:54 PM,69.1,57.0,65,29.96,10.0,Calm,Calm,-,N/A,,Mostly Cloudy,0,2013-10-16 21:54:00
6:54 PM,68.0,57.0,68,29.95,10.0,SW,4.6,-,N/A,,Mostly Cloudy,220,2013-10-16 22:54:00
7:54 PM,66.0,57.9,75,29.96,10.0,WSW,4.6,-,N/A,,Overcast,250,2013-10-16 23:54:00
8:54 PM,64.9,57.9,78,29.96,10.0,SE,3.5,-,N/A,,Overcast,130,2013-10-17 00:54:00
9:54 PM,64.0,57.9,80,29.96,10.0,South,4.6,-,N/A,,Overcast,180,2013-10-17 01:54:00
10:54 PM,63.0,59.0,87,29.95,10.0,SSW,4.6,-,N/A,,Mostly Cloudy,200,2013-10-17 02:54:00
11:21 PM,62.6,59.0,88,29.95,10.0,SSW,5.8,-,N/A,,Overcast,210,2013-10-17 03:21:00
11:46 PM,62.6,59.0,88,29.94,10.0,SSW,8.1,-,N/A,,Overcast,200,2013-10-17 03:46:00
11:54 PM,63.0,59.0,87,29.95,10.0,SSW,6.9,-,N/A,,Overcast,210,2013-10-17 03:54:00